Satellite-Ground Cal/Val Site Overpasses Predictions

Prediction of Satellite NPP Overpassing Cal/Val Site: Antarctic Dome C

Ground Cal/Val Site Location: Latitude: -75.10, Longitude: 123.35; Satellite-Ground Site NADIR distance within 100 km.

Table of predicted overpasses for the next 14.0 days since TLE Epoch: 10/27/2017
Interval Starting Time Ending Time Minimum Distance Time Minimum Distance (km)
1 10/28/2017 14:55:29 10/28/2017 14:55:58 10/28/2017 14:55:43 21.24
2 10/29/2017 14:36:46 10/29/2017 14:37:01 10/29/2017 14:36:54 85.96
3 10/30/2017 07:38:19 10/30/2017 07:38:46 10/30/2017 07:38:33 39.40
4 10/31/2017 07:19:32 10/31/2017 07:19:53 10/31/2017 07:19:42 70.57
5 11/02/2017 15:01:47 11/02/2017 15:02:11 11/02/2017 15:01:59 58.39
6 11/03/2017 14:42:57 11/03/2017 14:43:22 11/03/2017 14:43:10 50.86
7 11/04/2017 07:44:39 11/04/2017 07:44:58 11/04/2017 07:44:49 74.73
8 11/05/2017 07:25:45 11/05/2017 07:26:13 11/05/2017 07:25:59 33.08
9 11/07/2017 15:08:12 11/07/2017 15:08:19 11/07/2017 15:08:15 96.35
10 11/08/2017 14:49:11 11/08/2017 14:49:40 11/08/2017 14:49:26 15.25


NCC Satellite Cal/Val Overpasses Prediction Service
